Terug naar catalogus

KOMPSAT 2

ActiefWetenschapSSO
NORAD 29268·PAYLOAD·🇰🇷 South Korea

Gelanceerd Jul 28, 2006 vanaf Plesetsk Cosmodrome

Loading…

Volgende Passages (komende 24 uur)

TLE

VersSource: Space-Track

Epoch: Sep 14, 2026, 13:59 UTC

1 29268U 06031A   26257.58277966  .00000294  00000-0  63689-4 0  9990
2 29268  97.8332  77.7296 0015021 145.0888 286.1153 14.64704792 74564

Volg KOMPSAT 2 in realtime met AllMySat

Download on the App Store